Regional Weather Roundup
Issued by NWS Cleveland, OH

Home | Current Version | Previous Version | Graphics & Text | Print | Product List | Glossary On
Versions: 1 2 3 4 5 6 7 8 9 10 11 12 13 14 15 16 17 18 19 20 21 22 23 24 25 26 27 28 29 30 31 32 33 34 35 36 37 38 39 40 41 42 43 44 45 46 47 48 49 50
000
ASUS41 KCLE 012100
RWRCLE
OHIO REGIONAL WEATHER ROUNDUP
NATIONAL WEATHER SERVICE WILMINGTON, OH
400 PM EST SUN MAR 01 2015

NOTE: "FAIR" INDICATES FEW OR NO CLOUDS BELOW 12,000 FEET WITH NO
SIGNIFICANT WEATHER AND/OR OBSTRUCTIONS TO VISIBILITY.

OHZ001>008-015>018-024>027-034-035-043-044-012200-
   NORTHWEST OHIO

CITY           SKY/WX    TMP DP  RH WIND       PRES   REMARKS
DEFIANCE       CLOUDY    25  18  74 NW6       30.28S WCI  18
FINDLAY        CLOUDY    26  21  81 NW5       30.25S HAZE    WCI  20
TOLEDO EXPRESS LGT SNOW  23  18  81 W5        30.27S WCI  17
TOLEDO EXEC    CLOUDY    25  19  78 W5        30.28R HAZE    WCI  19
LIMA           LGT SNOW  27  23  85 NW3       30.24S VSB 1
$$

OHZ009>014-019>023-028>033-038-089-012200-
   NORTHEAST OHIO

CITY           SKY/WX    TMP DP  RH WIND       PRES   REMARKS
CLE-HOPKINS    SNOW      28  24  85 SW6       30.27F VSB 1/2 WCI  22
CLE-LAKEFRONT  SNOW      25  22  88 NW5       30.25F VSB 1/2 WCI  19
CUY CO. ARPT   LGT SNOW  27  25  93 NW9       30.25  FOG     WCI  17
LORAIN-ELYRIA  LGT SNOW  26  23  88 NW8       30.25S VSB 3/4 WCI  18
ASHTABULA      LGT SNOW  28  26  92 CALM      30.23S FOG
AKRON-CANTON   LGT SNOW  33  29  85 SW5       30.21S VSB 1   WCI  29
WOOSTER        NOT AVBL
MANSFIELD      LGT SNOW  29  25  85 NW6       30.21S VSB 3/4 WCI  23
YOUNGSTOWN     LGT SNOW  32  29  88 SW7       30.20F FOG     WCI  26
$$

OHZ042-051>053-060>062-070>072-077>081-012200-
  SOUTHWEST OHIO

CITY           SKY/WX    TMP DP  RH WIND       PRES   REMARKS
CINC-COVINGTON CLOUDY    34  31  88 W3        30.26S FOG
CINC-LUNKEN    CLOUDY    32  32 100 CALM      30.29F FOG
HAMILTON       LGT RAIN  34  32  92 S3        30.28F FOG
DAYTON         NOT AVBL
WRIGHT-PAT AFB NOT AVBL
DAYTON GENERAL LGT SNOW  32  31  96 W3        30.24F FOG
WILMINGTON     LGT RAIN  33  31  92 W8        30.24S FOG     WCI  26
$$

OHZ036-037-039>041-045>050-054>059-063>069-073>076-082>088-012200-
  CENTRAL AND SOUTHEAST OHIO

CITY           SKY/WX    TMP DP  RH WIND       PRES   REMARKS
COLUMBUS       DRIZZLE   32  30  92 SW3       30.25S FOG
OSU AIRPORT    LGT SNOW  33  30  88 W5        30.24S FOG     WCI  29
BOLTON FIELD   CLOUDY    32  32 100 SW5       30.25S WCI  27
RICKENBACK AFB NOT AVBL
NEWARK         CLOUDY    34  32  92 W5        30.24S FOG     WCI  30
MARION         SNOW      28  25  88 NW5       30.24S VSB 1/2 WCI  23
LANCASTER      CLOUDY    35  33  92 SW5       30.25S FOG
ZANESVILLE     CLOUDY    34  32  92 CALM      30.23F FOG
NEW PHILLY     CLOUDY    36  31  82 SW3       30.23F HAZE
$$


USA.gov is the U.S. government's official web portal to all federal, state and local government web resources and services.